Home > Weather > Bahawalpur > Past weeks

Flag for Pakistan Past Weather in Bahawalpur, Pakistan — Yesterday and Last 2 Weeks

Now
95 °F

Partly sunny.


Feels Like: 110 °F
Forecast: 85 / 96 °F
Wind: No wind

Location: Multan Airport

Current Time: Aug 26, 2016 at 1:41:18 PM

Latest Report: Aug 26, 2016 at 12:58 PM


Visibility: 3 mi

Pressure: 29.68 "Hg

Humidity: 56%

Dew Point: 77 °F

Location of BahawalpurLocation

Past Weather in Bahawalpur — Graph

°F

Bahawalpur Temperature Yesterday

Maximum temperature yesterday: 97 °F (at 2:00 PM)
Minimum temperature yesterday: 81 °F (at 1:55 AM)
Average temperature yesterday: 88 °F

High & Low Weather Summary for the Past Weeks

 TemperatureHumidityPressure
High102 °F (Aug 20, 12:55 PM)84% (Aug 17, 11:55 PM)29.71 "Hg (Aug 17, 11:55 PM)
Low81 °F (Aug 18, 4:58 AM)42% (Aug 19, 3:00 PM)29.39 "Hg (Aug 16, 3:55 PM)
Average91 °F63%29.53 "Hg
* Reported Aug 11 11:55 AM — Aug 26 11:58 AM, Bahawalpur, Weather by CustomWeather, © 2016

Note: Actual official high and low records may vary slightly from our data, if they occured in-between our weather recording intervals... More about our weather records

Advertising

Bahawalpur Weather History for the Previous 24 Hours

Scroll right to see more
 ConditionsComfort  
Time TempWeatherWind HumidityBarometerVisibility
11:58 AM
Fri, Aug 26
93 °FScattered clouds.5 mph56%29.71 "Hg3 mi
11:00 AM91 °FScattered clouds.7 mph63%29.71 "Hg3 mi
9:55 AM90 °FPassing clouds.7 mph63%29.71 "Hg2 mi
8:55 AM88 °FPassing clouds.7 mph70%29.71 "Hg2 mi
7:55 AM84 °FPassing clouds.No wind84%29.71 "Hg2 mi
6:55 AM81 °FPassing clouds.No wind84%29.68 "Hg2 mi
5:57 AM81 °FPassing clouds.5 mph84%29.68 "Hg2 mi
4:59 AM81 °FPassing clouds.No wind84%29.65 "Hg2 mi
4:00 AM82 °FPassing clouds.No wind79%29.65 "Hg2 mi
2:55 AM82 °FPassing clouds.No wind79%29.65 "Hg2 mi
1:55 AM82 °FPassing clouds.No wind79%29.65 "Hg2 mi
12:50 AM84 °FPassing clouds.5 mph79%29.65 "Hg2 mi
11:50 PM
Thu, Aug 25
84 °FPassing clouds.5 mph79%29.65 "Hg2 mi
10:55 PM86 °FPassing clouds.No wind75%29.68 "Hg2 mi
9:55 PM86 °FPassing clouds.No wind75%29.65 "Hg2 mi
9:00 PM88 °FPassing clouds.5 mph70%29.65 "Hg2 mi
7:53 PM88 °FPassing clouds.5 mph70%29.62 "Hg2 mi
6:56 PM90 °FPassing clouds.5 mph67%29.62 "Hg2 mi
5:56 PM93 °FScattered clouds.5 mph53%29.62 "Hg2 mi
4:56 PM95 °FScattered clouds.7 mph50%29.59 "Hg2 mi
3:55 PM97 °FScattered clouds.9 mph47%29.62 "Hg2 mi
3:00 PM97 °FScattered clouds.12 mph47%29.62 "Hg2 mi
2:00 PM97 °FScattered clouds.12 mph50%29.65 "Hg2 mi
Weather by CustomWeather, © 2016

See weather overviewHow to use our weather pages